This demonstration page uses our WeatherBlox Daily Observations layout. Learn more.

Left ArrowRight Arrow

38.89511, -77.03637

Hourly Observations for March 14, 2021

Temp ( °F °C ) Dew Point ( °F °C ) Humidity (%) Winds ( mph kmh ) Pressure ( in mb ) Visibility ( mi km ) Precip ( " mm )
12:52 am 00:52 Mostly Clear 47 8.3 18 -7.8 31 31 NNW 10 17 30.19 1022 10 16.0934 0 0
1:52 am 01:52 Mostly Clear 48 8.9 17 -8.3 29 29 NW 10 17 30.18 1022 10 16.0934 0 0
3:52 am 03:52 Mostly Clear 47 8.3 16 -8.9 29 29 NW 8 13 30.16 1022 10 16.0934 0 0
4:52 am 04:52 Mostly Clear 47 8.3 16 -8.9 29 29 NW 10 17 30.15 1021 10 16.0934 0 0
5:52 am 05:52 Mostly Clear 47 8.3 16 -8.9 29 29 NW 12 19 30.14 1021 10 16.0934 0 0
6:52 am 06:52 Mostly Clear 47 8.3 16 -8.9 29 29 NW 8 13 30.13 1020 10 16.0934 0 0
7:52 am 07:52 Mostly Sunny 48 8.9 18 -7.8 30 30 W 6 9 30.13 1020 10 16.0934 0 0
8:52 am 08:52 Mostly Sunny 52 11.1 20 -6.7 28 28 NW 12 19 30.14 1021 10 16.0934 0 0
9:52 am 09:52 Mostly Sunny 55 12.8 21 -6.1 26 26 WNW 10 17 30.14 1021 10 16.0934 0 0
10:52 am 10:52 Mostly Sunny 58 14.4 22 -5.6 25 25 NW 17 28 30.11 1020 10 16.0934 0 0
11:52 am 11:52 Mostly Sunny 61 16.1 24 -4.4 24 24 W 14 22 30.1 1019 10 16.0934 0 0
12:52 pm 12:52 Mostly Sunny 63 17.2 26 -3.3 25 25 NW 21 33 30.08 1019 10 16.0934 0 0
1:52 pm 13:52 Partly Cloudy 64 17.8 26 -3.3 24 24 WNW 23 37 30.05 1018 10 16.0934 0 0
2:52 pm 14:52 Partly Cloudy 65 18.3 26 -3.3 23 23 NW 22 35 30.01 1016 10 16.0934 0 0
3:52 pm 15:52 Partly Cloudy 65 18.3 24 -4.4 21 21 NW 38 61 29.99 1016 10 16.0934 0 0
4:52 pm 16:52 Partly Cloudy 64 17.8 22 -5.6 20 20 NW 22 35 30 1016 10 16.0934 0 0
5:52 pm 17:52 Mostly Cloudy 61 16.1 18 -7.8 19 19 NNW 18 30 30.01 1016 10 16.0934 0 0
6:52 pm 18:52 Mostly Cloudy 59 15 17 -8.3 19 19 NW 14 22 30.05 1018 10 16.0934 0 0
7:52 pm 19:52 Mostly Cloudy 56 13.3 10 -12.2 16 16 NW 17 28 30.11 1020 10 16.0934 0 0
8:52 pm 20:52 Mostly Cloudy 54 12.2 6 -14.4 14 14 NNW 16 26 30.16 1021 10 16.0934 0 0
9:52 pm 21:52 Mostly Cloudy 51 10.6 10 -12.2 19 19 NW 23 37 30.18 1022 10 16.0934 0 0
10:52 pm 22:52 Partly Cloudy 48 8.9 12 -11.1 23 23 NNW 17 28 30.22 1024 10 16.0934 0 0
11:52 pm 23:52 Partly Cloudy 46 7.8 13 -10.6 26 26 NNW 20 31 30.25 1024 10 16.0934 0 0

Powered by AerisWeather